Weather History for Port Angeles, WA

Change the Weather History Date:

Wednesday, October 23, 2013

  Actual Average Record
Temperature  
Mean Temperature 48 °F -  
Max Temperature 60 °F 56 °F 69 °F (1992)
Min Temperature 37 °F 41 °F 31 °F (1976)
Degree Days  
Heating Degree Days 17    
Growing Degree Days 0 (Base 50)    
Moisture  
Dew Point 42 °F    
Average Humidity 88    
Maximum Humidity 100    
Minimum Humidity 64    
Precipitation  
Precipitation 0.00 in - - ()
Sea Level Pressure  
Sea Level Pressure 30.03 in    
Wind  
Wind Speed 2 mph (SSW)    
Max Wind Speed 7 mph    
Max Gust Speed -    
Visibility 7 miles    
Events Fog    
Averages and records for this station are not official NWS values.
T = Trace of Precipitation, MM = Missing Value Source: NWS Daily Summary

Daily Weather History Graph

Daily Weather History Graph

Search for Another Location

Airport:

Trip Planner

Search our weather history database for the weather conditions in past years. The results will help you decide how hot, cold, wet, or windy it might be!

Date:

Astronomy

Oct. 23, 2013 Rise Set
Actual Time 7:45 AM PDT 6:09 PM PDT
Civil Twilight 7:14 AM PDT 6:41 PM PDT
Nautical Twilight 6:37 AM PDT 7:17 PM PDT
Astronomical Twilight 6:01 AM PDT 7:53 PM PDT
Moon 9:34 PM PDT (10/23) 12:19 PM PDT (10/23)
Length of Visible Light 11h 27m
Length of Day
10h 23m
Waning Gibbous, 78% of the Moon is Illuminated
Oct 23
Waning Gibbous
Oct 26
Last Quarter
Nov 3
New
Nov 9
First Quarter
Nov 17
Full

Hourly Weather History & Observations

Time (PDT) Temp. Windchill Dew Point Humidity Pressure Visibility Wind Dir Wind Speed Gust Speed Precip Events Conditions
12:53 AM 42.1 °F 40.2 °F 39.0 °F 89% 30.05 in 10.0 mi South 3.5 mph - N/A   Clear
1:53 AM 41.0 °F - 39.0 °F 93% 30.04 in 10.0 mi Calm Calm - N/A   Clear
2:53 AM 41.0 °F 39.0 °F 39.0 °F 93% 30.05 in 10.0 mi SSE 3.5 mph - N/A   Clear
3:53 AM 41.0 °F - 39.9 °F 96% 30.04 in 10.0 mi Calm Calm - N/A   Clear
4:53 AM 42.1 °F - 39.9 °F 92% 30.04 in 10.0 mi Calm Calm - N/A   Clear
5:53 AM 39.0 °F 36.8 °F 37.9 °F 96% 30.04 in 10.0 mi South 3.5 mph - N/A   Clear
6:53 AM 39.0 °F - 37.0 °F 93% 30.04 in 10.0 mi Calm Calm - N/A   Clear
7:47 AM 37.4 °F - 35.6 °F 93% 30.04 in 1.5 mi Calm Calm - N/A   Clear
7:53 AM 37.0 °F - 36.0 °F 96% 30.05 in 0.8 mi Calm Calm - N/A   Clear
8:01 AM 39.0 °F - 37.0 °F 93% 30.04 in 1.5 mi Calm Calm - N/A   Clear
8:14 AM 37.9 °F - 37.0 °F 97% 30.04 in 10.0 mi Calm Calm - N/A   Clear
8:53 AM 44.1 °F - 42.1 °F 93% 30.06 in 10.0 mi Calm Calm - N/A   Clear
9:53 AM 51.1 °F - 48.0 °F 89% 30.06 in 10.0 mi Calm Calm - N/A   Clear
10:53 AM 55.0 °F - 48.0 °F 77% 30.06 in 10.0 mi East 5.8 mph - N/A   Clear
11:53 AM 55.9 °F - 48.0 °F 75% 30.06 in 10.0 mi East 6.9 mph - N/A   Clear
12:53 PM 55.9 °F - 46.9 °F 72% 30.05 in 10.0 mi East 4.6 mph - N/A   Clear
1:53 PM 59.0 °F - 46.9 °F 64% 30.04 in 10.0 mi East 3.5 mph - N/A   Clear
2:53 PM 57.0 °F - 46.9 °F 69% 30.02 in 10.0 mi Variable 5.8 mph - N/A   Clear
3:53 PM 57.0 °F - 48.0 °F 72% 30.01 in 10.0 mi NNE 3.5 mph - N/A   Clear
4:53 PM 57.9 °F - 46.9 °F 67% 30.01 in 10.0 mi Calm Calm - N/A   Clear
5:53 PM 55.0 °F - 46.0 °F 72% 30.00 in 10.0 mi Calm Calm - N/A   Clear
6:53 PM 48.0 °F - 45.0 °F 89% 30.01 in 10.0 mi Calm Calm - N/A   Clear
7:53 PM 46.9 °F - 44.1 °F 90% 30.01 in 10.0 mi Calm Calm - N/A   Clear
8:53 PM 45.0 °F - 43.0 °F 93% 30.02 in 6.0 mi Calm Calm - N/A   Clear
9:53 PM 46.0 °F 43.9 °F 44.1 °F 93% 30.03 in 10.0 mi West 4.6 mph - N/A   Clear
10:22 PM 44.1 °F - 43.0 °F 96% 30.02 in 1.5 mi Calm Calm - N/A   Clear
10:31 PM 44.1 °F - 42.1 °F 93% 30.02 in 0.5 mi Calm Calm - N/A Fog Fog
10:36 PM 44.1 °F - 43.0 °F 96% 30.02 in 0.8 mi Calm Calm - N/A   Mist
10:44 PM 44.1 °F 41.5 °F 43.0 °F 96% 30.03 in 2.0 mi West 4.6 mph - N/A   Mostly Cloudy
10:48 PM 42.8 °F 40.1 °F 42.8 °F 100% 30.03 in 0.8 mi WNW 4.6 mph - N/A   Mist
10:53 PM 42.1 °F 39.2 °F 41.0 °F 96% 30.03 in 0.5 mi WNW 4.6 mph - N/A Fog Fog
11:02 PM 42.1 °F 39.2 °F 41.0 °F 96% 30.03 in 0.2 mi WNW 4.6 mph - N/A Fog Fog
11:53 PM 43.0 °F 40.3 °F 43.0 °F 100% 30.04 in 0.2 mi SW 4.6 mph - N/A Fog Fog